Waarnemingen

Advertentie
Mijn weer
Altnaharra, Groot Brittannië (3044): temperatuur & dauwpunt: 09.08.2018 00:00:00 - 15.08.2018 00:00:00 (BST)Altnaharra, Groot Brittannië (3044): temperatuur -20cm & temperatuur -100cm: 09.08.2018 00:00:00 - 15.08.2018 00:00:00 (BST)Altnaharra, Groot Brittannië (3044): windsnelheid & windstoten: 09.08.2018 00:00:00 - 15.08.2018 00:00:00 (BST)Altnaharra, Groot Brittannië (3044): windrichting: 09.08.2018 00:00:00 - 15.08.2018 00:00:00 (BST)Altnaharra, Groot Brittannië (3044): luchtdruk: 09.08.2018 00:00:00 - 15.08.2018 00:00:00 (BST)Altnaharra, Groot Brittannië (3044): zicht: 09.08.2018 00:00:00 - 15.08.2018 00:00:00 (BST)Altnaharra, Groot Brittannië (3044): Zonneschijnduur: 09.08.2018 00:00:00 - 15.08.2018 00:00:00 (BST)Altnaharra, Groot Brittannië (3044): neerslag: 09.08.2018 00:00:00 - 15.08.2018 00:00:00 (BST)
Datum & Tijd tt [°C] td [°C] tt -20cm [°C] tt -100cm [°C] ff [km/u] ff [kn] fx [km/u] fx [kn] dd ppp [hPa] vv [km] sd [min] rr [mm]
15.08.2018 00:00:00 13,4 8,7 - - 8 4 - - Z 1007,1 50 0 0,0
14.08.2018 23:00:00 14,1 10,0 - - 8 4 - - O 1007,3 50 0 0,0
14.08.2018 22:00:00 14,0 10,8 - - 11 6 - - ZW 1007,3 50 0 0,0
14.08.2018 21:00:00 14,9 11,5 - - 9 5 - - Z 1006,9 35 0 0,0
14.08.2018 20:00:00 15,8 12,1 - - 11 6 - - ZW 1006,6 50 48 0,0
14.08.2018 19:00:00 16,9 12,6 - - 18 10 - - ZW 1006,4 30 24 0,0
14.08.2018 18:00:00 17,5 13,3 - - 15 8 - - ZW 1006,2 40 0 0,0
14.08.2018 17:00:00 18,6 14,4 - - 13 7 - - ZZW 1005,9 27 36 0,0
14.08.2018 16:00:00 19,4 14,8 - - 18 10 - - Z 1005,9 45 42 0,0
14.08.2018 15:00:00 17,5 14,0 - - 18 10 - - Z 1006,1 17 54 0,0
14.08.2018 14:00:00 16,3 13,5 - - 21 11 - - ZZO 1006,6 7 6 0,0
14.08.2018 13:00:00 14,5 13,1 - - 15 8 - - Z 1006,8 45 0 0,8
14.08.2018 12:00:00 13,9 12,8 - - 9 5 - - ZZO 1007,1 8 0 2,0
14.08.2018 11:00:00 13,9 12,7 - - 9 5 - - Z 1007,5 29 0 0,6
14.08.2018 10:00:00 14,3 12,6 15,2 14,4 9 5 - - Z 1007,4 45 0 0,2
14.08.2018 09:00:00 14,7 11,9 - - 8 4 - - Z 1007,3 45 0 0,0
14.08.2018 08:00:00 14,1 12,1 - - 9 5 - - Z 1007,4 50 0 0,0
14.08.2018 07:00:00 13,4 11,8 - - 5 3 - - ZZO 1007,4 45 0 0,0
14.08.2018 06:00:00 13,5 11,7 - - 8 4 - - Z 1007,9 50 0 0,0
14.08.2018 05:00:00 13,6 11,9 - - 8 4 - - Z 1007,9 50 0 0,0
14.08.2018 04:00:00 13,4 11,7 - - 9 5 - - Z 1007,8 50 0 0,0
14.08.2018 03:00:00 13,6 12,1 - - 9 5 - - Z 1008,1 50 0 0,0
14.08.2018 02:00:00 13,4 12,4 - - 2 1 - - ZZW 1008,4 50 0 0,0
14.08.2018 01:00:00 13,7 12,9 - - 8 4 - - ZZO 1008,8 40 - 0,2
14.08.2018 00:00:00 13,5 12,8 - - 5 3 - - ZW 1008,8 21 0 0,0
13.08.2018 23:00:00 13,5 12,8 - - 5 3 - - WZW 1008,8 5 0 0,0
13.08.2018 22:00:00 13,8 12,6 - - 9 5 - - NNW 1008,7 50 0 0,0
13.08.2018 21:00:00 14,6 12,6 - - 4 2 - - WNW 1008,6 50 0 0,0
13.08.2018 20:00:00 15,0 12,7 - - 8 4 - - NNW 1008,2 50 0 0,0
13.08.2018 19:00:00 15,7 12,5 - - 5 3 - - NNW 1008,0 50 0 0,0
13.08.2018 18:00:00 15,8 12,7 - - 4 2 - - N 1008,2 50 0 0,0
13.08.2018 17:00:00 15,6 12,5 - - 9 5 - - O 1008,4 45 0 0,0
13.08.2018 16:00:00 15,3 12,2 - - 13 7 - - O 1008,5 50 0 0,0
13.08.2018 15:00:00 15,0 12,1 - - 15 8 - - OZO 1008,7 50 0 0,0
13.08.2018 14:00:00 15,4 11,9 - - 13 7 - - OZO 1008,6 40 0 0,0
13.08.2018 13:00:00 14,3 11,4 - - 16 9 - - OZO 1008,6 50 0 0,0
13.08.2018 12:00:00 14,2 11,2 - - 15 8 - - O 1008,8 45 0 0,0
13.08.2018 11:00:00 13,6 11,7 - - 21 11 - - O 1008,6 35 0 0,0
13.08.2018 10:00:00 13,4 11,0 15,2 14,4 15 8 - - ONO 1008,8 14 0 0,0
13.08.2018 09:00:00 12,5 11,1 - - 21 11 - - NO 1008,7 50 0 0,0
13.08.2018 08:00:00 11,9 10,9 - - 18 10 - - NO 1008,9 35 0 0,0
13.08.2018 07:00:00 11,3 10,2 - - 18 10 - - NO 1008,7 30 0 0,0
13.08.2018 06:00:00 11,4 10,5 - - 16 9 - - NO 1008,7 7 0 0,0
13.08.2018 05:00:00 11,5 10,5 - - 18 10 - - NO 1008,8 11 0 0,0
13.08.2018 04:00:00 11,5 10,3 - - 18 10 - - NO 1009,2 13 0 0,0
13.08.2018 03:00:00 11,4 9,9 - - 9 5 - - N 1009,3 30 0 0,0
13.08.2018 02:00:00 11,6 10,2 - - 13 7 - - NNO 1009,8 45 0 0,0
13.08.2018 01:00:00 11,6 10,6 - - 11 6 - - NNO 1009,8 45 - 0,0
13.08.2018 00:00:00 11,2 10,1 - - 15 8 - - NO 1010,2 35 0 0,4
12.08.2018 23:00:00 11,6 10,1 - - 16 9 - - ONO 1010,2 19 0 0,2
12.08.2018 22:00:00 11,8 10,0 - - 22 12 - - ONO 1010,2 27 0 0,4
12.08.2018 21:00:00 11,8 10,2 - - 21 11 - - ONO 1010,4 27 0 0,8
12.08.2018 20:00:00 12,4 10,3 - - 18 10 - - ONO 1010,2 35 0 0,2
12.08.2018 19:00:00 13,0 9,4 - - 22 12 - - ONO 1010,1 45 0 0,0
12.08.2018 18:00:00 14,6 8,3 - - 26 14 - - ONO 1009,9 27 0 0,0
12.08.2018 17:00:00 15,2 10,0 - - 28 15 - - ONO 1009,9 30 0 0,0
12.08.2018 16:00:00 15,5 10,5 - - 29 16 - - ONO 1010,0 40 0 0,0
12.08.2018 15:00:00 15,7 10,2 - - 29 16 46 25 ONO 1010,3 45 0 0,0
12.08.2018 14:00:00 15,9 10,1 - - 29 16 - - O 1010,2 30 18 0,0
12.08.2018 13:00:00 15,3 10,7 - - 34 18 46 25 O 1010,5 35 0 0,0
12.08.2018 12:00:00 14,7 10,2 - - 29 16 - - ONO 1010,8 35 0 0,0
12.08.2018 11:00:00 14,5 10,5 - - 31 17 - - O 1010,7 40 0 0,0
12.08.2018 10:00:00 13,7 10,9 15,4 14,5 28 15 - - ONO 1010,8 40 0 0,0
12.08.2018 09:00:00 13,8 10,9 - - 24 13 - - ONO 1010,7 40 0 0,0
12.08.2018 08:00:00 12,7 10,2 - - 21 11 - - ONO 1010,8 50 0 0,0
12.08.2018 07:00:00 12,1 10,7 - - 21 11 - - NO 1010,7 40 0 0,0
12.08.2018 06:00:00 11,8 10,5 - - 15 8 - - NO 1010,7 35 0 0,0
12.08.2018 05:00:00 10,9 9,8 - - 11 6 - - NO 1011,1 45 0 0,0
12.08.2018 04:00:00 11,0 9,8 - - 16 9 - - NO 1011,6 45 0 0,0
12.08.2018 03:00:00 11,3 10,0 - - 18 10 - - NO 1012,3 45 0 0,0
12.08.2018 02:00:00 11,0 9,6 - - 15 8 - - NNO 1012,9 50 0 0,0
12.08.2018 01:00:00 11,3 9,7 - - 16 9 - - NO 1013,5 50 - 0,0
12.08.2018 00:00:00 11,0 8,9 - - 15 8 - - NO 1014,1 50 0 0,0
11.08.2018 23:00:00 11,5 8,9 - - 15 8 - - NO 1014,5 50 0 0,0
11.08.2018 22:00:00 11,9 9,2 - - 18 10 - - ONO 1015,0 35 0 0,0
11.08.2018 21:00:00 12,6 8,5 - - 16 9 - - ONO 1015,4 50 0 0,0
11.08.2018 20:00:00 13,1 9,0 - - 15 8 - - NO 1015,6 50 0 0,0
11.08.2018 19:00:00 13,9 9,2 - - 16 9 - - NNO 1015,7 40 0 0,0
11.08.2018 18:00:00 14,3 8,8 - - 13 7 - - NNO 1016,0 50 0 0,0
11.08.2018 17:00:00 14,6 9,2 - - 11 6 - - NNO 1016,2 50 0 0,0
11.08.2018 16:00:00 15,0 9,6 - - 13 7 - - N 1016,4 40 0 0,0
11.08.2018 15:00:00 15,1 9,6 - - 16 9 - - NNO 1016,7 45 0 0,0
11.08.2018 14:00:00 16,1 6,9 - - 5 3 - - W 1016,7 45 42 0,0
11.08.2018 13:00:00 15,8 6,8 - - 5 3 - - W 1016,9 50 12 0,0
11.08.2018 12:00:00 14,8 7,5 - - 9 5 - - W 1017,1 50 0 0,0
11.08.2018 11:00:00 14,4 7,4 - - 9 5 - - WNW 1017,3 50 24 0,0
11.08.2018 10:00:00 14,9 8,6 15,4 14,5 11 6 - - ZZW 1017,3 40 54 0,0
11.08.2018 09:00:00 13,2 9,6 - - 16 9 - - ZZO 1017,4 35 60 0,0
11.08.2018 08:00:00 11,8 10,7 - - 8 4 - - ZZW 1017,6 50 42 0,0
11.08.2018 07:00:00 8,1 8,1 - - 5 3 - - W 1017,8 35 30 0,0
11.08.2018 06:00:00 5,1 4,5 - - 2 1 - - ZZW 1017,6 0,5 0 0,2
11.08.2018 05:00:00 5,4 5,0 - - 4 2 - - ONO 1017,6 - 0 0,0
11.08.2018 04:00:00 7,2 6,7 - - 5 3 - - NW 1017,6 28 0 0,0
11.08.2018 03:00:00 8,2 8,0 - - 5 3 - - NNW 1017,5 30 0 0,0
11.08.2018 02:00:00 7,5 7,3 - - 4 2 - - NNW 1017,8 50 0 0,0
11.08.2018 01:00:00 7,0 6,7 - - 2 1 - - NO 1017,9 40 - 0,0
11.08.2018 00:00:00 8,1 7,6 - - 2 1 - - WZW 1017,7 40 0 0,0
10.08.2018 23:00:00 8,4 7,6 - - 2 1 - - W 1017,5 45 0 0,0
10.08.2018 22:00:00 10,8 10,0 - - 2 1 - - O 1016,9 29 0 0,0
10.08.2018 21:00:00 12,1 10,9 - - 0 0 - - N 1016,3 40 0 0,0
10.08.2018 20:00:00 12,5 10,7 - - 8 4 - - ONO 1016,0 35 0 0,0
10.08.2018 19:00:00 12,6 10,8 - - 8 4 - - ONO 1015,5 50 6 0,0
10.08.2018 18:00:00 13,0 11,5 - - 11 6 - - O 1015,2 35 6 6,4
10.08.2018 17:00:00 12,9 10,8 - - 2 1 - - ZW 1015,0 1,6 0 2,2
10.08.2018 16:00:00 14,4 9,8 - - 9 5 - - NNW 1014,3 30 0 0,0
10.08.2018 15:00:00 14,8 9,2 - - 16 9 - - W 1013,7 50 18 0,0
10.08.2018 14:00:00 14,2 9,4 - - 9 5 - - OZO 1013,3 50 18 0,2
10.08.2018 13:00:00 13,2 11,1 - - 8 4 - - NNW 1012,9 18 6 1,2
10.08.2018 12:00:00 14,5 8,2 - - 9 5 - - NNO 1012,3 19 6 0,0
10.08.2018 11:00:00 15,3 8,8 - - 5 3 - - O 1012,0 40 48 0,0
10.08.2018 10:00:00 13,0 8,4 15,5 14,7 2 1 - - OZO 1012,1 45 0 0,0
10.08.2018 09:00:00 11,2 8,6 - - 2 1 - - WNW 1012,1 40 0 0,0
10.08.2018 08:00:00 9,2 8,5 - - 0 0 - - N 1011,7 45 0 0,0
10.08.2018 07:00:00 7,6 7,3 - - 4 2 - - WNW 1011,5 45 0 0,0
10.08.2018 06:00:00 6,9 6,6 - - 4 2 - - NW 1011,3 50 0 0,0
10.08.2018 05:00:00 6,4 6,1 - - 5 3 - - W 1011,2 50 0 0,0
10.08.2018 04:00:00 6,3 6,0 - - 2 1 - - NO 1011,5 35 0 0,0
10.08.2018 03:00:00 4,7 4,4 - - 5 3 - - W 1011,4 28 0 0,0
10.08.2018 02:00:00 5,6 4,9 - - 4 2 - - N 1011,5 50 0 0,0
10.08.2018 01:00:00 6,6 6,2 - - 2 1 - - Z 1011,6 50 - 0,0
10.08.2018 00:00:00 5,6 5,0 - - 4 2 - - OZO 1011,6 50 0 0,0
09.08.2018 23:00:00 7,5 4,6 - - 2 1 - - ZW 1011,1 45 0 0,0
09.08.2018 22:00:00 10,1 6,2 - - 4 2 - - Z 1010,8 23 0 0,0
09.08.2018 21:00:00 13,1 7,4 - - 8 4 - - ZZW 1010,6 45 30 0,0
09.08.2018 20:00:00 14,3 7,8 - - 9 5 - - ZZW 1010,1 40 18 0,0
09.08.2018 19:00:00 14,5 7,3 - - 16 9 - - ZW 1009,9 40 30 0,0
09.08.2018 18:00:00 15,6 7,1 - - 16 9 - - Z 1009,7 40 54 0,0
09.08.2018 17:00:00 16,1 7,9 - - 18 10 - - ZW 1009,4 50 54 0,0
09.08.2018 16:00:00 17,9 9,0 - - 15 8 - - Z 1008,7 18 42 0,0
09.08.2018 15:00:00 16,5 7,5 - - 16 9 - - ZZW 1008,7 30 54 0,0
09.08.2018 14:00:00 15,3 7,6 - - 15 8 - - ZZW 1008,4 40 36 0,0
09.08.2018 13:00:00 14,7 7,9 - - 21 11 - - Z 1007,8 40 42 0,0
09.08.2018 12:00:00 14,1 7,5 - - 21 11 46 25 Z 1007,6 35 42 0,0
09.08.2018 11:00:00 15,0 7,5 - - 28 15 50 27 Z 1007,0 40 42 0,0
09.08.2018 10:00:00 12,8 7,5 15,7 14,7 15 8 - - Z 1007,0 35 0 0,0
09.08.2018 09:00:00 12,6 7,7 - - 16 9 - - Z 1006,8 50 18 0,0
09.08.2018 08:00:00 12,4 7,8 - - 18 10 - - ZZO 1006,8 30 48 0,0
09.08.2018 07:00:00 10,4 7,1 - - 5 3 - - ZW 1006,8 50 30 0,0
09.08.2018 06:00:00 5,5 4,2 - - 8 4 - - NW 1007,1 45 0 0,0
09.08.2018 05:00:00 5,5 4,8 - - 8 4 - - N 1007,2 45 0 0,0
09.08.2018 04:00:00 6,1 4,8 - - 5 3 - - ZO 1007,4 50 0 0,0
09.08.2018 03:00:00 6,2 4,3 - - 2 1 - - W 1007,3 50 0 0,0
09.08.2018 02:00:00 7,4 5,2 - - 5 3 - - NNW 1007,0 50 0 0,0
09.08.2018 01:00:00 7,8 5,8 - - 5 3 - - WZW 1006,9 45 - 0,0
09.08.2018 00:00:00 7,8 6,1 - - 5 3 - - WZW 1007,0 40 0 0,0

tt = temperatuur
td = dauwpunt
tt -20cm = temperatuur -20cm
tt -100cm = temperatuur -100cm
ff = windsnelheid
fx = windstoten
dd = windrichting
ppp = luchtdruk
vv = zicht
sd = Zonneschijnduur
rr = neerslag

Weerstations in de omgeving